Winona, MN

6:05 AM CDT on September 25, 2017 (GMT -0500)
Winona Municipal-Conrad

Weather History for KONA - November, 2012

Change the Weather History Date:

Sunday, November 18, 2012

  Actual Average Record
Temperature  
Mean Temperature 48 °F -  
Max Temperature 57 °F 43 °F 64 °F (1999)
Min Temperature 39 °F 29 °F 12 °F (2014)
Degree Days  
Heating Degree Days 17    
Moisture  
Dew Point 30 °F    
Average Humidity 52    
Maximum Humidity 70    
Minimum Humidity 33    
Precipitation  
Precipitation 0.00 in - - ()
Sea Level Pressure  
Sea Level Pressure 30.22 in    
Wind  
Wind Speed 7 mph (SSE)    
Max Wind Speed 15 mph    
Max Gust Speed 23 mph    
Visibility 10 miles    
Events      
Averages and records for this station are not official NWS values.
T = Trace of Precipitation, MM = Missing Value Source: NWS Daily Summary

Daily Weather History Graph

Daily Weather History Graph

Search for Another Location

Airport or City:

Trip Planner

Search our weather history database for the weather conditions in past years. The results will help you decide how hot, cold, wet, or windy it might be!

Date:

Astronomy

Nov. 18, 2012 Rise Set
Actual Time 7:06 AM CST 4:37 PM CST
Civil Twilight 6:35 AM CST 5:08 PM CST
Nautical Twilight 5:59 AM CST 5:43 PM CST
Astronomical Twilight 5:25 AM CST 6:18 PM CST
Moon 11:31 AM CST (11/18) 10:00 PM CST (11/18)
Length of Visible Light 10h 33m
Length of Day
9h 30m
Waxing Crescent, 30% of the Moon is Illuminated
Nov 18
Waxing Crescent
Nov 20
First Quarter
Nov 28
Full
Dec 6
Last Quarter
Dec 13
New

Hourly Weather History & Observations

Time (CST) Temp. Windchill Dew Point Humidity Pressure Visibility Wind Dir Wind Speed Gust Speed Precip Events Conditions
12:12 AM 46.4 °F 44.3 °F 30.2 °F 53% 30.31 in 10.0 mi South 4.6 mph - N/A   Clear
12:32 AM 44.6 °F 41.4 °F 30.2 °F 57% 30.31 in 10.0 mi SSE 5.8 mph - N/A   Clear
12:53 AM 44.6 °F 41.4 °F 30.2 °F 57% 30.31 in 10.0 mi SSE 5.8 mph - N/A   Clear
1:12 AM 41.0 °F 36.4 °F 28.4 °F 61% 30.31 in 10.0 mi SE 6.9 mph - N/A   Clear
1:32 AM 42.8 °F 39.3 °F 28.4 °F 57% 30.31 in 10.0 mi SSE 5.8 mph - N/A   Scattered Clouds
1:53 AM 42.8 °F 39.3 °F 26.6 °F 53% 30.30 in 10.0 mi SSE 5.8 mph - N/A   Scattered Clouds
2:12 AM 42.8 °F 38.6 °F 28.4 °F 57% 30.30 in 10.0 mi SSE 6.9 mph - N/A   Scattered Clouds
2:32 AM 42.8 °F 38.6 °F 28.4 °F 57% 30.30 in 10.0 mi SSE 6.9 mph - N/A   Clear
2:52 AM 41.0 °F 37.1 °F 28.4 °F 61% 30.30 in 10.0 mi SSE 5.8 mph - N/A   Clear
3:12 AM 41.0 °F 36.4 °F 28.4 °F 61% 30.30 in 10.0 mi SE 6.9 mph - N/A   Clear
3:33 AM 41.0 °F 35.8 °F 28.4 °F 61% 30.29 in 10.0 mi SSE 8.1 mph - N/A   Clear
3:52 AM 41.0 °F 36.4 °F 28.4 °F 61% 30.28 in 10.0 mi SSE 6.9 mph - N/A   Clear
4:12 AM 41.0 °F 35.8 °F 28.4 °F 61% 30.28 in 10.0 mi SSE 8.1 mph - N/A   Scattered Clouds
4:33 AM 41.0 °F 35.8 °F 28.4 °F 61% 30.28 in 10.0 mi South 8.1 mph - N/A   Clear
4:52 AM 41.0 °F 36.4 °F 28.4 °F 61% 30.27 in 10.0 mi SSE 6.9 mph 17.3 mph N/A   Clear
5:12 AM 41.0 °F 36.4 °F 28.4 °F 61% 30.27 in 10.0 mi South 6.9 mph - N/A   Clear
5:33 AM 42.8 °F 37.5 °F 28.4 °F 57% 30.26 in 10.0 mi SSE 9.2 mph - N/A   Clear
5:52 AM 41.0 °F 36.4 °F 28.4 °F 61% 30.26 in 10.0 mi SSE 6.9 mph - N/A   Clear
6:12 AM 41.0 °F 35.8 °F 28.4 °F 61% 30.25 in 10.0 mi SSE 8.1 mph - N/A   Clear
6:33 AM 41.0 °F 37.1 °F 28.4 °F 61% 30.25 in 10.0 mi SSE 5.8 mph - N/A   Clear
6:52 AM 39.2 °F 35.9 °F 28.4 °F 65% 30.26 in 10.0 mi SSE 4.6 mph - N/A   Clear
7:12 AM 39.2 °F 35.0 °F 28.4 °F 65% 30.26 in 10.0 mi SSE 5.8 mph - N/A   Clear
7:33 AM 39.2 °F 35.0 °F 30.2 °F 70% 30.25 in 10.0 mi SSE 5.8 mph - N/A   Clear
7:52 AM 41.0 °F 37.1 °F 30.2 °F 65% 30.25 in 10.0 mi SSE 5.8 mph - N/A   Scattered Clouds
8:12 AM 42.8 °F 38.0 °F 30.2 °F 61% 30.25 in 10.0 mi SSE 8.1 mph - N/A   Mostly Cloudy
8:33 AM 42.8 °F 38.0 °F 30.2 °F 61% 30.25 in 10.0 mi SSE 8.1 mph - N/A   Scattered Clouds
8:52 AM 44.6 °F 41.4 °F 30.2 °F 57% 30.25 in 10.0 mi SSE 5.8 mph - N/A   Clear
9:12 AM 44.6 °F 41.4 °F 30.2 °F 57% 30.25 in 10.0 mi SSE 5.8 mph - N/A   Mostly Cloudy
9:33 AM 46.4 °F 42.9 °F 32.0 °F 57% 30.24 in 10.0 mi SSE 6.9 mph - N/A   Overcast
9:52 AM 46.4 °F 42.9 °F 32.0 °F 57% 30.24 in 10.0 mi SSE 6.9 mph - N/A   Overcast
10:12 AM 46.4 °F 42.9 °F 30.2 °F 53% 30.24 in 10.0 mi South 6.9 mph - N/A   Overcast
10:33 AM 46.4 °F 42.4 °F 30.2 °F 53% 30.24 in 10.0 mi SSE 8.1 mph - N/A   Overcast
10:52 AM 50.0 °F - 30.2 °F 47% 30.23 in 10.0 mi SSE 8.1 mph - N/A   Overcast
11:12 AM 51.8 °F - 30.2 °F 44% 30.22 in 10.0 mi SSE 6.9 mph - N/A   Mostly Cloudy
11:33 AM 51.8 °F - 30.2 °F 44% 30.22 in 10.0 mi South 5.8 mph - N/A   Scattered Clouds
11:52 AM 53.6 °F - 30.2 °F 41% 30.21 in 10.0 mi SSE 6.9 mph - N/A   Clear
12:12 PM 53.6 °F - 28.4 °F 38% 30.20 in 10.0 mi SSE 10.4 mph - N/A   Clear
12:33 PM 57.2 °F - 30.2 °F 36% 30.19 in 10.0 mi SSE 6.9 mph - N/A   Mostly Cloudy
12:52 PM 57.2 °F - 28.4 °F 33% 30.19 in 10.0 mi South 8.1 mph - N/A   Mostly Cloudy
1:12 PM 55.4 °F - 28.4 °F 36% 30.18 in 10.0 mi SSE 9.2 mph - N/A   Mostly Cloudy
1:33 PM 57.2 °F - 28.4 °F 33% 30.18 in 10.0 mi South 12.7 mph 23.0 mph N/A   Mostly Cloudy
1:52 PM 55.4 °F - 28.4 °F 36% 30.17 in 10.0 mi South 8.1 mph 18.4 mph N/A   Mostly Cloudy
2:12 PM 55.4 °F - 30.2 °F 38% 30.17 in 10.0 mi SSE 9.2 mph 17.3 mph N/A   Mostly Cloudy
2:33 PM 57.2 °F - 28.4 °F 33% 30.17 in 10.0 mi South 10.4 mph 20.7 mph N/A   Mostly Cloudy
2:52 PM 57.2 °F - 28.4 °F 33% 30.17 in 10.0 mi South 6.9 mph - N/A   Overcast
3:12 PM 57.2 °F - 30.2 °F 36% 30.17 in 10.0 mi SSE 9.2 mph - N/A   Mostly Cloudy
3:33 PM 55.4 °F - 28.4 °F 36% 30.17 in 10.0 mi SSE 15.0 mph - N/A   Scattered Clouds
3:52 PM 53.6 °F - 28.4 °F 38% 30.17 in 10.0 mi SSE 8.1 mph - N/A   Scattered Clouds
4:12 PM 53.6 °F - 30.2 °F 41% 30.17 in 10.0 mi SSE 9.2 mph - N/A   Scattered Clouds
4:33 PM 51.8 °F - 30.2 °F 44% 30.17 in 10.0 mi SSE 5.8 mph - N/A   Scattered Clouds
4:52 PM 51.8 °F - 30.2 °F 44% 30.18 in 10.0 mi Calm Calm - N/A   Scattered Clouds
5:12 PM 51.8 °F - 32.0 °F 47% 30.18 in 10.0 mi SSE 8.1 mph - N/A   Clear
5:33 PM 51.8 °F - 32.0 °F 47% 30.19 in 10.0 mi SSE 3.5 mph - N/A   Clear
5:52 PM 51.8 °F - 32.0 °F 47% 30.19 in 10.0 mi SSE 5.8 mph - N/A   Clear
6:12 PM 51.8 °F - 32.0 °F 47% 30.19 in 10.0 mi SSE 6.9 mph - N/A   Clear
6:33 PM 50.0 °F - 32.0 °F 50% 30.19 in 10.0 mi SSE 5.8 mph - N/A   Clear
6:52 PM 50.0 °F - 32.0 °F 50% 30.19 in 10.0 mi SSE 5.8 mph - N/A   Clear
7:12 PM 50.0 °F - 32.0 °F 50% 30.19 in 10.0 mi SSE 4.6 mph - N/A   Clear
7:33 PM 50.0 °F - 32.0 °F 50% 30.18 in 10.0 mi SSE 10.4 mph - N/A   Clear
7:52 PM 48.2 °F - 32.0 °F 54% 30.18 in 10.0 mi SSE 11.5 mph - N/A   Clear
8:12 PM 50.0 °F - 32.0 °F 50% 30.18 in 10.0 mi SSE 6.9 mph 16.1 mph N/A   Clear
8:33 PM 48.2 °F - 32.0 °F 54% 30.18 in 10.0 mi SSE 10.4 mph - N/A   Clear
8:52 PM 48.2 °F - 32.0 °F 54% 30.19 in 10.0 mi SSE 5.8 mph - N/A   Clear
9:12 PM 46.4 °F 43.5 °F 30.2 °F 53% 30.19 in 10.0 mi SSE 5.8 mph - N/A   Clear
9:33 PM 46.4 °F 43.5 °F 30.2 °F 53% 30.19 in 10.0 mi SSE 5.8 mph - N/A   Clear
9:52 PM 46.4 °F 44.3 °F 32.0 °F 57% 30.19 in 10.0 mi SSE 4.6 mph - N/A   Clear
10:12 PM 46.4 °F 42.9 °F 32.0 °F 57% 30.19 in 10.0 mi SSE 6.9 mph - N/A   Clear
10:33 PM 46.4 °F 42.9 °F 32.0 °F 57% 30.19 in 10.0 mi SSE 6.9 mph - N/A   Clear
10:53 PM 46.4 °F 42.4 °F 30.2 °F 53% 30.19 in 10.0 mi SSE 8.1 mph - N/A   Clear
11:12 PM 46.4 °F 41.9 °F 30.2 °F 53% 30.18 in 10.0 mi SSE 9.2 mph - N/A   Scattered Clouds
11:33 PM 46.4 °F 42.9 °F 30.2 °F 53% 30.18 in 10.0 mi SSE 6.9 mph - N/A   Scattered Clouds
11:53 PM 46.4 °F 43.5 °F 30.2 °F 53% 30.18 in 10.0 mi SSE 5.8 mph - N/A   Scattered Clouds